Regional Weather Roundup
Issued by NWS Northern Indiana

Home | Current Version | Previous Version | Graphics & Text | Print | Product List | Glossary On
Versions: 1 2 3 4 5 6 7 8 9 10 11 12 13 14 15 16 17 18 19 20 21 22 23 24 25 26 27 28 29 30 31 32 33 34 35 36 37 38 39 40 41 42 43 44 45 46 47 48 49 50
000
ASUS43 KIWX 051010
RWRIWX

KIWX WEATHER ROUNDUP
NATIONAL WEATHER SERVICE NORTHERN INDIANA
600 AM EDT SAT SEP 05 2015

NOTE: "FAIR" INDICATES FEW OR NO CLOUDS BELOW 12,000 FEET WITH NO
SIGNIFICANT WEATHER AND/OR OBSTRUCTIONS TO VISIBILITY.

* THESE STATIONS ARE NOT UNDER NWS QUALITY CONTROL. THEY ALSO MAY NOT
  REPORT WEATHER SUCH AS PRECIPITATION OR FOG.

INZ001>027-051100-
NORTHERN INDIANA

CITY           SKY/WX    TMP DP  RH WIND       PRES   REMARKS
GARY*          MOCLDY    72  68  88 SE8       30.09R
VALPARAISO     PTCLDY    67  65  93 S3        30.10R
MICHIGAN CITY* PTCLDY    68  68 100 S3        30.10R
LAPORTE*       CLEAR    N/A N/A N/A CALM      30.11S
KNOX*          PTCLDY    64  64 100 CALM      30.09F
SOUTH BEND     CLEAR     67  64  90 CALM      30.11R
GOSHEN         PTCLDY    66  64  93 CALM      30.11R
MONTICELLO*    CLEAR     67  67 100 CALM      30.10R
LOGANSPORT*    CLEAR     63  61  94 CALM      30.11S
ROCHESTER*     CLEAR     70  68  94 CALM      30.12R
WARSAW*        PTCLDY    64  64 100 CALM      30.11S
ANGOLA*        MOCLDY    64  55  72 CALM      30.11R
FORT WAYNE     CLOUDY    66  64  93 SE5       30.12R
HUNTINGTON*    MOCLDY    65  62  89 CALM      30.11R
PERU/GRISSOM   CLEAR     63  62  96 S5        30.10S
MARION*        PTCLDY    64  58  83 CALM      30.12R

$$
INZ028>050-051100-
CENTRAL INDIANA

CITY           SKY/WX    TMP DP  RH WIND       PRES   REMARKS
LAFAYETTE      CLEAR     66  63  90 CALM      30.10R
KOKOMO*        CLEAR     64 N/A N/A SW3       30.11S
MUNCIE*        PTCLDY    63  62  97 CALM      30.11S
INDIANAPOLIS   PTCLDY    70  64  81 CALM      30.10R

$$
MIZ043>046-050>051-056>058-064>065-071>073-077>080-051100-
SOUTHWEST LOWER MICHIGAN

CITY           SKY/WX    TMP DP  RH WIND       PRES   REMARKS
BATTLE CREEK   PTCLDY    69  66  90 S5        30.11R
BENTON HARBOR  MOCLDY    68  66  93 SE5       30.09R
COLDWATER*     MOCLDY    65  64  98 CALM      30.11R
HILLSDALE*     CLEAR     66  66  98 CALM      30.12R
HOLLAND        FOG       65  63  93 CALM      30.09S VSB 1/2
GRAND RAPIDS   CLOUDY    66  65  96 CALM      30.10R FOG
KALAMAZOO      MOCLDY    70  66  87 S3        30.10R
STURGIS*       PTCLDY    64  63  94 CALM      30.10S
THREE RIVERS*  FAIR      67  66  96 CALM      30.10S

$$
OHZ001>008-015>018-024>025-051100-
NORTHWEST OHIO

CITY           SKY/WX    TMP DP  RH WIND       PRES   REMARKS
WAUSEON*       MOCLDY    68  68 100 CALM      30.11R
DEFIANCE       CLOUDY    67  64  90 CALM      30.11R
FINDLAY        TSTM      69  65  86 NE8       30.13R FOG
TOLEDO EXPRESS MOCLDY    67  65  93 S3        30.11R
TOLEDO METCALF CLOUDY    69  65  86 S13       30.13R
LIMA           PTCLDY    64  62  93 E3        30.13R

$$
AND FOR LAKE MICHIGAN COASTAL AND OPEN LAKE BUOY OBSERVATIONS

STATION/POSITION TEMP    WIND        PRES    VSBY  WAVE
                 AIR SEA DIR/SP/G                  HT/PER
                 (F)     (DEG/KT/KT) (MB)    (MI)  (FT/S)
CALUMET HARBOR    72     170/  2/  3   N/A
MICHIGAN CITY     69     130/ 10/ 12   N/A
BURNS HARBOR      72     170/  6/ 10 1019.0R
SAINT JOSEPH      70     140/  3/  6 1019.6R
SOUTH LAKE BUOY   69 71   90/  4/  4 1017.9R         0
4 MI NW BRIDGMAN  71 74  220/ 12/ 14   N/A           1
MICHIGAN CITY     71 74  190/ 10/ 14   N/A           1

$$
&&


USA.gov is the U.S. government's official web portal to all federal, state and local government web resources and services.